Tracking 29892 objects as of 21-Nov-2024
HD Live streaming from Space Station
objects crossing your sky now

STARLINK-31587

Track STARLINK-31587 now!
10-day predictions
STARLINK-31587 is classified as:


NORAD ID: 59570
Int'l Code: 2024-076G
Perigee: 442.6 km
Apogee: 444.7 km
Inclination: 43.0 °
Period: 93.3 minutes
Semi major axis: 6814 km
RCS: Unknown
Launch date: April 23, 2024
Source: United States (US)
Launch site: AIR FORCE EASTERN TEST RANGE (AFETR)
Your satellite tracking list
Your tracking list is empty




NASA's NSSDC Master Catalog

Two Line Element Set (TLE):
1 59570U 24076G   24325.91633678 -.00011664  00000-0 -24984-3 0  9994
2 59570  42.9988 178.6061 0001548 260.3370  99.7313 15.43254522 33872
Source of the keplerian elements: AFSPC